This is the latest recevied weather packets stored in our database for station/object KG5MMT-12. If no packets are shown the sender has not sent any weather packets the latest 10 day(s).
| Time | Temp. | Humidity | Pressure | Rain* | Wind** | Luminosity | Snow |
|---|---|---|---|---|---|---|---|
| 1787873959 | 17.22° C | 87% | 0 hPa | 0 mm | - | - | - |
| 1787873659 | 17.22° C | 85% | 0 hPa | 0 mm | - | - | - |
| 1787873359 | 17.22° C | 87% | 0 hPa | 0 mm | - | - | - |
| 1787873059 | 17.78° C | 88% | 0 hPa | 0.25 mm | - | - | - |
| 1787872759 | 17.78° C | 89% | 0 hPa | 0.25 mm | - | - | - |
| 1787872459 | 17.78° C | 87% | 0 hPa | 0.25 mm | - | - | - |
| 1787872159 | 17.78° C | 89% | 0 hPa | 0.25 mm | - | - | - |
| 1787871859 | 17.78° C | 89% | 0 hPa | 0.25 mm | - | - | - |
| 1787871559 | 17.78° C | 88% | 0 hPa | 0.51 mm | - | - | - |
| 1787871259 | 17.22° C | 88% | 0 hPa | 0.76 mm | - | - | - |
| 1787870959 | 17.22° C | 89% | 0 hPa | 0.76 mm | - | - | - |
| 1787870659 | 17.22° C | 87% | 0 hPa | 0.76 mm | - | - | - |
| 1787870359 | 17.22° C | 87% | 0 hPa | 0.76 mm | - | - | - |
| 1787870059 | 17.22° C | 87% | 0 hPa | 0.76 mm | - | - | - |
| 1787869759 | 17.22° C | 81% | 0 hPa | 0.76 mm | - | - | - |
| 1787869459 | 17.78° C | 83% | 0 hPa | 0.51 mm | - | - | - |
| 1787869159 | 17.78° C | 87% | 0 hPa | 0.51 mm | - | - | - |
| 1787868859 | 17.78° C | 84% | 0 hPa | 0.51 mm | - | - | - |
| 1787868559 | 18.89° C | 81% | 0 hPa | 0.51 mm | - | - | - |
| 1787868259 | 19.44° C | 76% | 0 hPa | 0.51 mm | - | - | - |
| 1787867959 | 20.56° C | 71% | 0 hPa | 0.25 mm | - | - | - |
| 1787867659 | 20.56° C | 64% | 0 hPa | 0 mm | - | - | - |
| 1787867359 | 20° C | 67% | 0 hPa | 0 mm | - | - | - |
| 1787867059 | 20° C | 75% | 0 hPa | 0 mm | - | - | - |
| 1787866759 | 20° C | 84% | 0 hPa | 0 mm | - | - | - |
* Rain latest hour (hover to see other rain measurements)
** Current wind speed in m/s (hover to see current wind gust speed)